Track STARLINK-2039 now! 10-day predictions STARLINK-2039 is classified as:
1 47655U 21012AM 22181.51137566 .00000299 00000-0 38998-4 0 9992 2 47655 53.0551 3.8372 0001517 71.4752 288.6402 15.06401104 76781